| time (UTC) | temp F | wind direction | speed MPH | gust MPH | rain 1hr in | rain 24hr in | rain mn in | humidity % | barometer mb |
| 20260507232236 | 43 | 222 | 8.0 | 11.0 | 0.00 | 0.00 | 0.00 | 42 | 1010.8 |
| 20260507231732 | 43 | 272 | 7.0 | 14.0 | 0.00 | 0.00 | 0.00 | 42 | 1010.7 |
| 20260507231230 | 43 | 273 | 3.0 | 11.0 | 0.00 | 0.00 | 0.00 | 42 | 1010.8 |
| 20260507230726 | 43 | 272 | 5.0 | 13.0 | 0.00 | 0.00 | 0.00 | 41 | 1010.8 |
| 20260507230224 | 43 | 285 | 3.0 | 11.0 | 0.00 | 0.00 | 0.00 | 41 | 1010.8 |
| 20260507225723 | 43 | 273 | 5.0 | 12.0 | 0.00 | 0.00 | 0.00 | 42 | 1011.0 |
| 20260507225220 | 43 | 262 | 9.0 | 14.0 | 0.00 | 0.00 | 0.00 | 41 | 1010.9 |
| 20260507224716 | 43 | 220 | 7.0 | 11.0 | 0.00 | 0.00 | 0.00 | 43 | 1011.2 |
| 20260507224213 | 43 | 249 | 4.0 | 9.0 | 0.00 | 0.00 | 0.00 | 43 | 1011.2 |
| 20260507223708 | 44 | 270 | 6.0 | 10.0 | 0.00 | 0.00 | 0.00 | 43 | 1011.0 |
| 20260507223206 | 44 | 277 | 9.0 | 12.0 | 0.00 | 0.00 | 0.00 | 42 | 1011.0 |
| 20260507222702 | 43 | 263 | 10.0 | 11.0 | 0.00 | 0.00 | 0.00 | 43 | 1011.0 |
| 20260507222159 | 43 | 223 | 4.0 | 6.0 | 0.00 | 0.00 | 0.00 | 46 | 1011.1 |
| 20260507221655 | 43 | 204 | 3.0 | 6.0 | 0.00 | 0.00 | 0.00 | 47 | 1011.2 |
| 20260507221151 | 43 | 232 | 3.0 | 8.0 | 0.00 | 0.00 | 0.00 | 47 | 1011.1 |
| 20260507220649 | 43 | 219 | 5.0 | 9.0 | 0.00 | 0.00 | 0.00 | 46 | 1011.0 |
| 20260507220147 | 43 | 221 | 4.0 | 10.0 | 0.00 | 0.00 | 0.00 | 46 | 1011.0 |
| 20260507215642 | 43 | 179 | 3.0 | 5.0 | 0.00 | 0.00 | 0.00 | 46 | 1011.3 |
| 20260507215140 | 43 | 215 | 3.0 | 4.0 | 0.00 | 0.00 | 0.00 | 46 | 1011.2 |
| 20260507214637 | 42 | 259 | 3.0 | 11.0 | 0.00 | 0.00 | 0.00 | 46 | 1011.1 |
| 20260507214134 | 43 | 277 | 10.0 | 10.0 | 0.00 | 0.00 | 0.00 | 45 | 1011.2 |
| 20260507213630 | 43 | 210 | 5.0 | 10.0 | 0.00 | 0.00 | 0.00 | 46 | 1011.2 |
| 20260507213127 | 43 | 285 | 6.0 | 11.0 | 0.00 | 0.00 | 0.00 | 45 | 1011.3 |
| 20260507212623 | 43 | 209 | 4.0 | 10.0 | 0.00 | 0.00 | 0.00 | 45 | 1011.1 |
| 20260507212120 | 43 | 201 | 5.0 | 14.0 | 0.00 | 0.00 | 0.00 | 46 | 1011.1 |
| 20260507211617 | 43 | 223 | 17.0 | 18.0 | 0.00 | 0.00 | 0.00 | 44 | 1011.2 |
| 20260507211112 | 43 | 217 | 11.0 | 20.0 | 0.00 | 0.00 | 0.00 | 44 | 1011.2 |
| 20260507210610 | 43 | 205 | 10.0 | 15.0 | 0.00 | 0.00 | 0.00 | 44 | 1011.0 |
| 20260507210107 | 43 | 224 | 7.0 | 12.0 | 0.00 | 0.00 | 0.00 | 45 | 1011.2 |
| 20260507205603 | 43 | 217 | 14.0 | 18.0 | 0.00 | 0.00 | 0.00 | 45 | 1011.2 |
| 20260507205100 | 43 | 198 | 3.0 | 8.0 | 0.00 | 0.00 | 0.00 | 46 | 1011.2 |
| 20260507204556 | 43 | 218 | 5.0 | 9.0 | 0.00 | 0.00 | 0.00 | 48 | 1011.2 |
| 20260507204054 | 43 | 238 | 3.0 | 7.0 | 0.00 | 0.00 | 0.00 | 47 | 1011.2 |
| 20260507203551 | 42 | 214 | 6.0 | 9.0 | 0.00 | 0.00 | 0.00 | 46 | 1011.6 |
| 20260507203049 | 43 | 223 | 8.0 | 13.0 | 0.00 | 0.00 | 0.00 | 47 | 1011.3 |
| 20260507202544 | 43 | 259 | 4.0 | 6.0 | 0.00 | 0.00 | 0.00 | 47 | 1011.6 |
| 20260507202041 | 43 | 196 | 4.0 | 10.0 | 0.00 | 0.00 | 0.00 | 46 | 1011.7 |
| 20260507201536 | 43 | 222 | 5.0 | 14.0 | 0.00 | 0.00 | 0.00 | 44 | 1011.3 |
| 20260507201033 | 43 | 218 | 9.0 | 9.0 | 0.00 | 0.00 | 0.00 | 46 | 1011.3 |
| 20260507200528 | 43 | 199 | 4.0 | 14.0 | 0.00 | 0.00 | 0.00 | 46 | 1011.2 |
| 20260507200025 | 43 | 262 | 12.0 | 12.0 | 0.00 | 0.00 | 0.00 | 45 | 1011.5 |
| 20260507195522 | 43 | 231 | 8.0 | 12.0 | 0.00 | 0.00 | 0.00 | 45 | 1011.6 |
| 20260507195020 | 43 | 230 | 3.0 | 14.0 | 0.00 | 0.00 | 0.00 | 46 | 1011.5 |
| 20260507194516 | 43 | 213 | 15.0 | 17.0 | 0.00 | 0.00 | 0.00 | 46 | 1011.5 |
| 20260507194012 | 43 | 244 | 10.0 | 13.0 | 0.00 | 0.00 | 0.00 | 47 | 1011.5 |
| 20260507193509 | 43 | 251 | 8.0 | 14.0 | 0.00 | 0.00 | 0.00 | 47 | 1011.6 |
| 20260507193006 | 43 | 276 | 6.0 | 6.0 | 0.00 | 0.00 | 0.00 | 47 | 1011.6 |
| 20260507192502 | 43 | 311 | 5.0 | 10.0 | 0.00 | 0.00 | 0.00 | 47 | 1011.6 |
| 20260507191959 | 42 | 256 | 6.0 | 6.0 | 0.00 | 0.00 | 0.00 | 47 | 1011.9 |
| 20260507191454 | 43 | 269 | 8.0 | 12.0 | 0.00 | 0.00 | 0.00 | 48 | 1011.7 |
| 20260507190952 | 42 | 324 | 2.0 | 7.0 | 0.00 | 0.00 | 0.00 | 48 | 1011.8 |
| 20260507190449 | 42 | 245 | 8.0 | 13.0 | 0.00 | 0.00 | 0.00 | 47 | 1011.9 |
| 20260507185948 | 42 | 289 | 5.0 | 10.0 | 0.00 | 0.00 | 0.00 | 48 | 1011.9 |
| 20260507185445 | 42 | 291 | 11.0 | 11.0 | 0.00 | 0.00 | 0.00 | 47 | 1012.1 |
| 20260507184941 | 42 | 239 | 7.0 | 11.0 | 0.00 | 0.00 | 0.00 | 48 | 1011.8 |
| 20260507184439 | 42 | 276 | 4.0 | 9.0 | 0.00 | 0.00 | 0.00 | 48 | 1012.0 |
| 20260507183937 | 42 | 271 | 1.0 | 9.0 | 0.00 | 0.00 | 0.00 | 49 | 1011.9 |
| 20260507183434 | 42 | 266 | 4.0 | 8.0 | 0.00 | 0.00 | 0.00 | 47 | 1011.9 |
| 20260507182931 | 42 | 231 | 7.0 | 10.0 | 0.00 | 0.00 | 0.00 | 47 | 1011.8 |
| 20260507182427 | 42 | 258 | 6.0 | 6.0 | 0.00 | 0.00 | 0.00 | 48 | 1011.8 |
| 20260507181923 | 42 | 261 | 4.0 | 12.0 | 0.00 | 0.00 | 0.00 | 48 | 1012.0 |
| 20260507181419 | 42 | 289 | 4.0 | 6.0 | 0.00 | 0.00 | 0.00 | 52 | 1011.9 |
| 20260507180916 | 42 | 261 | 4.0 | 11.0 | 0.00 | 0.00 | 0.00 | 53 | 1011.9 |
| 20260507180413 | 41 | 33 | 2.0 | 12.0 | 0.00 | 0.00 | 0.00 | 53 | 1012.1 |
| 20260507175909 | 42 | 295 | 3.0 | 4.0 | 0.00 | 0.00 | 0.00 | 51 | 1012.0 |
| 20260507175406 | 42 | 354 | 4.0 | 10.0 | 0.00 | 0.00 | 0.00 | 53 | 1011.9 |
| 20260507174903 | 42 | 47 | 6.0 | 6.0 | 0.00 | 0.00 | 0.00 | 54 | 1012.2 |
| 20260507174400 | 42 | 315 | 6.0 | 9.0 | 0.00 | 0.00 | 0.00 | 52 | 1012.2 |
| 20260507173858 | 42 | 262 | 6.0 | 6.0 | 0.00 | 0.00 | 0.00 | 53 | 1012.3 |
| 20260507173355 | 42 | 284 | 4.0 | 5.0 | 0.00 | 0.00 | 0.00 | 52 | 1012.4 |
| 20260507172851 | 42 | 4 | 8.0 | 14.0 | 0.00 | 0.00 | 0.00 | 51 | 1012.3 |
| 20260507172348 | 41 | 263 | 4.0 | 7.0 | 0.00 | 0.00 | 0.00 | 54 | 1012.5 |
| 20260507171844 | 41 | 271 | 5.0 | 11.0 | 0.00 | 0.00 | 0.00 | 54 | 1012.6 |
| 20260507171341 | 41 | 296 | 6.0 | 11.0 | 0.00 | 0.00 | 0.00 | 54 | 1012.6 |
| 20260507170838 | 41 | 266 | 10.0 | 12.0 | 0.00 | 0.00 | 0.00 | 54 | 1012.6 |
| 20260507170334 | 41 | 290 | 9.0 | 14.0 | 0.00 | 0.00 | 0.00 | 53 | 1012.5 |
| 20260507165830 | 41 | 231 | 4.0 | 15.0 | 0.00 | 0.00 | 0.00 | 55 | 1012.6 |
| 20260507165326 | 41 | 240 | 4.0 | 12.0 | 0.00 | 0.00 | 0.00 | 54 | 1012.8 |
| 20260507164822 | 41 | 176 | 3.0 | 4.0 | 0.00 | 0.00 | 0.00 | 56 | 1013.0 |
| 20260507164320 | 41 | 201 | 4.0 | 7.0 | 0.00 | 0.00 | 0.00 | 53 | 1012.8 |
| 20260507163817 | 41 | 212 | 7.0 | 8.0 | 0.00 | 0.00 | 0.00 | 53 | 1012.8 |
| 20260507163314 | 41 | 268 | 6.0 | 11.0 | 0.00 | 0.00 | 0.00 | 53 | 1012.7 |
| 20260507162810 | 41 | 310 | 5.0 | 7.0 | 0.00 | 0.00 | 0.00 | 53 | 1012.9 |
| 20260507162307 | 41 | 204 | 3.0 | 9.0 | 0.00 | 0.00 | 0.00 | 52 | 1012.9 |
| 20260507161804 | 41 | 253 | 6.0 | 18.0 | 0.00 | 0.00 | 0.00 | 53 | 1012.8 |
| 20260507161300 | 41 | 225 | 11.0 | 13.0 | 0.00 | 0.00 | 0.00 | 55 | 1012.8 |
| 20260507160756 | 42 | 255 | 5.0 | 11.0 | 0.00 | 0.00 | 0.00 | 53 | 1013.1 |
| 20260507160252 | 41 | 229 | 7.0 | 8.0 | 0.00 | 0.00 | 0.00 | 57 | 1013.0 |
| 20260507155748 | 41 | 179 | 6.0 | 13.0 | 0.00 | 0.00 | 0.00 | 56 | 1013.0 |
| 20260507155244 | 41 | 269 | 5.0 | 11.0 | 0.00 | 0.00 | 0.00 | 57 | 1013.1 |
| 20260507154741 | 41 | 213 | 6.0 | 9.0 | 0.00 | 0.00 | 0.00 | 57 | 1013.1 |
| 20260507154239 | 40 | 283 | 7.0 | 9.0 | 0.00 | 0.00 | 0.00 | 56 | 1013.2 |
| 20260507153735 | 40 | 232 | 6.0 | 10.0 | 0.00 | 0.00 | 0.00 | 56 | 1013.1 |
| 20260507153232 | 40 | 220 | 11.0 | 13.0 | 0.00 | 0.00 | 0.00 | 57 | 1013.2 |
| 20260507152728 | 40 | 305 | 2.0 | 10.0 | 0.00 | 0.00 | 0.00 | 55 | 1013.2 |
| 20260507152225 | 40 | 16 | 4.0 | 11.0 | 0.00 | 0.00 | 0.00 | 56 | 1013.1 |
| 20260507151721 | 40 | 277 | 5.0 | 9.0 | 0.00 | 0.00 | 0.00 | 58 | 1013.3 |
| 20260507151217 | 39 | 249 | 1.0 | 6.0 | 0.00 | 0.00 | 0.00 | 58 | 1013.3 |
| 20260507150714 | 39 | 302 | 4.0 | 11.0 | 0.00 | 0.00 | 0.00 | 57 | 1013.3 |
| 20260507150211 | 39 | 237 | 5.0 | 12.0 | 0.00 | 0.00 | 0.00 | 56 | 1013.3 |
| 20260507145707 | 40 | 289 | 7.0 | 13.0 | 0.00 | 0.00 | 0.00 | 57 | 1013.5 |
| 20260507145204 | 40 | 296 | 2.0 | 6.0 | 0.00 | 0.00 | 0.00 | 57 | 1013.2 |
| 20260507144700 | 39 | 274 | 5.0 | 9.0 | 0.00 | 0.00 | 0.00 | 57 | 1013.2 |
| 20260507144159 | 39 | 224 | 8.0 | 10.0 | 0.00 | 0.00 | 0.00 | 58 | 1013.1 |
| 20260507143655 | 39 | 187 | 4.0 | 10.0 | 0.00 | 0.00 | 0.00 | 57 | 1013.4 |
| 20260507143152 | 39 | 205 | 6.0 | 11.0 | 0.00 | 0.00 | 0.00 | 59 | 1013.3 |
| 20260507142647 | 39 | 243 | 6.0 | 9.0 | 0.00 | 0.00 | 0.00 | 60 | 1013.3 |
| 20260507142145 | 39 | 216 | 15.0 | 16.0 | 0.00 | 0.00 | 0.00 | 58 | 1013.1 |
| 20260507141641 | 39 | 217 | 7.0 | 12.0 | 0.00 | 0.00 | 0.00 | 60 | 1013.1 |
| 20260507141138 | 39 | 313 | 2.0 | 6.0 | 0.00 | 0.00 | 0.00 | 61 | 1013.3 |
| 20260507140634 | 39 | 227 | 2.0 | 5.0 | 0.00 | 0.00 | 0.00 | 60 | 1013.4 |
| 20260507140132 | 39 | 254 | 2.0 | 6.0 | 0.00 | 0.00 | 0.00 | 61 | 1013.4 |
| 20260507135629 | 39 | 313 | 2.0 | 6.0 | 0.00 | 0.00 | 0.00 | 61 | 1013.0 |
| 20260507135126 | 39 | 223 | 5.0 | 10.0 | 0.00 | 0.00 | 0.00 | 62 | 1013.2 |
| 20260507134622 | 39 | 265 | 4.0 | 4.0 | 0.00 | 0.00 | 0.00 | 62 | 1013.3 |
| 20260507134118 | 39 | 336 | 6.0 | 11.0 | 0.00 | 0.00 | 0.00 | 62 | 1013.3 |
| 20260507133614 | 39 | 289 | 3.0 | 6.0 | 0.00 | 0.00 | 0.00 | 63 | 1013.5 |
| 20260507133112 | 38 | 200 | 4.0 | 4.0 | 0.00 | 0.00 | 0.00 | 66 | 1013.0 |
| 20260507132609 | 38 | 230 | 2.0 | 7.0 | 0.00 | 0.00 | 0.00 | 66 | 1013.3 |
| 20260507132105 | 37 | 267 | 5.0 | 7.0 | 0.00 | 0.00 | 0.00 | 67 | 1013.3 |
| 20260507131602 | 37 | 239 | 3.0 | 4.0 | 0.00 | 0.00 | 0.00 | 67 | 1013.1 |
| 20260507131100 | 37 | 278 | 6.0 | 7.0 | 0.00 | 0.00 | 0.00 | 67 | 1013.0 |
| 20260507130556 | 37 | 218 | 3.0 | 6.0 | 0.00 | 0.00 | 0.00 | 68 | 1013.2 |
| 20260507130054 | 37 | 197 | 3.0 | 5.0 | 0.00 | 0.00 | 0.00 | 67 | 1013.2 |
| 20260507125553 | 37 | 278 | 3.0 | 5.0 | 0.00 | 0.00 | 0.00 | 66 | 1013.4 |
| 20260507125050 | 37 | 267 | 3.0 | 6.0 | 0.00 | 0.00 | 0.00 | 67 | 1013.1 |
| 20260507124546 | 37 | 229 | 7.0 | 7.0 | 0.00 | 0.00 | 0.00 | 67 | 1013.2 |
| 20260507124044 | 37 | 275 | 6.0 | 8.0 | 0.00 | 0.00 | 0.00 | 67 | 1013.1 |
| 20260507123542 | 37 | 209 | 6.0 | 6.0 | 0.00 | 0.00 | 0.00 | 67 | 1013.0 |
| 20260507123038 | 37 | 213 | 9.0 | 9.0 | 0.00 | 0.00 | 0.00 | 67 | 1013.1 |
| 20260507122533 | 37 | 205 | 6.0 | 6.0 | 0.00 | 0.00 | 0.00 | 68 | 1013.2 |
| 20260507122030 | 37 | 219 | 3.0 | 9.0 | 0.00 | 0.00 | 0.00 | 68 | 1013.0 |
| 20260507121525 | 37 | 217 | 6.0 | 6.0 | 0.00 | 0.00 | 0.00 | 68 | 1013.1 |
| 20260507121021 | 37 | 243 | 2.0 | 11.0 | 0.00 | 0.00 | 0.00 | 68 | 1012.9 |
| 20260507120518 | 37 | 199 | 2.0 | 4.0 | 0.00 | 0.00 | 0.00 | 68 | 1013.0 |
| 20260507120015 | 38 | 205 | 2.0 | 3.0 | 0.00 | 0.00 | 0.00 | 67 | 1013.0 |
| 20260507115511 | 38 | 131 | 4.0 | 4.0 | 0.00 | 0.00 | 0.00 | 70 | 1013.0 |
| 20260507115007 | 36 | 95 | 2.0 | 3.0 | 0.00 | 0.00 | 0.00 | 72 | 1012.8 |
| 20260507114503 | 34 | 117 | 2.0 | 3.0 | 0.00 | 0.00 | 0.00 | 74 | 1012.9 |
| 20260507114000 | 33 | 145 | 2.0 | 4.0 | 0.00 | 0.00 | 0.00 | 74 | 1013.0 |
| 20260507113458 | 32 | 137 | 2.0 | 3.0 | 0.00 | 0.00 | 0.00 | 77 | 1012.6 |
| 20260507112955 | 32 | 131 | 3.0 | 3.0 | 0.00 | 0.00 | 0.00 | 77 | 1012.9 |
| 20260507112452 | 32 | 139 | 2.0 | 4.0 | 0.00 | 0.00 | 0.00 | 75 | 1012.6 |
| 20260507111949 | 34 | 135 | 2.0 | 4.0 | 0.00 | 0.00 | 0.00 | 71 | 1012.7 |
| 20260507111446 | 35 | 125 | 2.0 | 3.0 | 0.00 | 0.00 | 0.00 | 72 | 1012.6 |
| 20260507110942 | 35 | 126 | 2.0 | 3.0 | 0.00 | 0.00 | 0.00 | 71 | 1012.5 |
| 20260507110438 | 34 | 120 | 2.0 | 2.0 | 0.00 | 0.00 | 0.00 | 74 | 1012.5 |
| 20260507105935 | 33 | 119 | 2.0 | 2.0 | 0.00 | 0.00 | 0.00 | 76 | 1012.5 |
| 20260507105432 | 32 | 120 | 2.0 | 2.0 | 0.00 | 0.00 | 0.00 | 80 | 1012.6 |
| 20260507104929 | 31 | 108 | 2.0 | 3.0 | 0.00 | 0.00 | 0.00 | 82 | 1012.4 |
| 20260507104426 | 30 | 123 | 2.0 | 2.0 | 0.00 | 0.00 | 0.00 | 85 | 1012.6 |
| 20260507103926 | 28 | 109 | 2.0 | 2.0 | 0.00 | 0.00 | 0.00 | 87 | 1012.6 |
| 20260507103424 | 28 | 117 | 2.0 | 2.0 | 0.00 | 0.00 | 0.00 | 88 | 1012.5 |
| 20260507102919 | 28 | 139 | 2.0 | 3.0 | 0.00 | 0.00 | 0.00 | 88 | 1012.4 |
| 20260507102417 | 28 | 146 | 3.0 | 4.0 | 0.00 | 0.00 | 0.00 | 87 | 1012.4 |
| 20260507101913 | 28 | 130 | 2.0 | 3.0 | 0.00 | 0.00 | 0.00 | 86 | 1012.3 |
| 20260507101408 | 28 | 127 | 2.0 | 3.0 | 0.00 | 0.00 | 0.00 | 86 | 1012.3 |
| 20260507100905 | 28 | 141 | 2.0 | 3.0 | 0.00 | 0.00 | 0.00 | 87 | 1012.3 |
| 20260507100403 | 28 | 132 | 2.0 | 3.0 | 0.00 | 0.00 | 0.00 | 87 | 1012.5 |
| 20260507095901 | 28 | 153 | 2.0 | 3.0 | 0.00 | 0.00 | 0.00 | 87 | 1012.3 |
| 20260507095357 | 28 | 134 | 3.0 | 4.0 | 0.00 | 0.00 | 0.00 | 86 | 1012.3 |
| 20260507094854 | 27 | 135 | 4.0 | 5.0 | 0.00 | 0.00 | 0.00 | 86 | 1012.4 |
| 20260507094351 | 27 | 151 | 4.0 | 5.0 | 0.00 | 0.00 | 0.00 | 86 | 1012.4 |
| 20260507093848 | 28 | 150 | 3.0 | 4.0 | 0.00 | 0.00 | 0.00 | 85 | 1012.3 |
| 20260507093346 | 28 | 149 | 3.0 | 4.0 | 0.00 | 0.00 | 0.00 | 84 | 1012.3 |
| 20260507092844 | 28 | 150 | 4.0 | 4.0 | 0.00 | 0.00 | 0.00 | 84 | 1012.4 |
| 20260507092340 | 28 | 143 | 2.0 | 3.0 | 0.00 | 0.00 | 0.00 | 84 | 1012.5 |
| 20260507091836 | 28 | 131 | 2.0 | 4.0 | 0.00 | 0.00 | 0.00 | 84 | 1012.4 |
| 20260507091333 | 28 | 135 | 2.0 | 3.0 | 0.00 | 0.00 | 0.00 | 84 | 1012.6 |
| 20260507090829 | 29 | 154 | 2.0 | 3.0 | 0.00 | 0.00 | 0.00 | 83 | 1012.8 |
| 20260507090325 | 30 | 172 | 2.0 | 3.0 | 0.00 | 0.00 | 0.00 | 82 | 1012.6 |
| 20260507085822 | 29 | 140 | 2.0 | 4.0 | 0.00 | 0.00 | 0.00 | 83 | 1012.8 |
| 20260507085319 | 29 | 130 | 2.0 | 2.0 | 0.00 | 0.00 | 0.00 | 83 | 1012.6 |
| 20260507084817 | 29 | 134 | 1.0 | 2.0 | 0.00 | 0.00 | 0.00 | 83 | 1012.7 |
| 20260507084313 | 29 | 162 | 2.0 | 2.0 | 0.00 | 0.00 | 0.00 | 82 | 1013.0 |
| 20260507083810 | 30 | 167 | 2.0 | 3.0 | 0.00 | 0.00 | 0.00 | 80 | 1012.9 |
| 20260507083307 | 30 | 152 | 2.0 | 3.0 | 0.00 | 0.00 | 0.00 | 80 | 1012.8 |
| 20260507082803 | 30 | 116 | 1.0 | 2.0 | 0.00 | 0.00 | 0.00 | 80 | 1012.9 |
| 20260507082258 | 30 | 126 | 2.0 | 2.0 | 0.00 | 0.00 | 0.00 | 81 | 1013.0 |
| 20260507081756 | 30 | 82 | 0.0 | 2.0 | 0.00 | 0.00 | 0.00 | 79 | 1012.8 |
| 20260507081251 | 30 | 104 | 1.0 | 2.0 | 0.00 | 0.00 | 0.00 | 78 | 1013.0 |
| 20260507080748 | 30 | 102 | 0.0 | 2.0 | 0.00 | 0.00 | 0.00 | 78 | 1013.0 |
| 20260507080244 | 31 | 101 | 1.0 | 3.0 | 0.00 | 0.00 | 0.00 | 77 | 1013.1 |
| 20260507075740 | 31 | 102 | 2.0 | 2.0 | 0.00 | 0.00 | 0.00 | 78 | 1012.9 |
| 20260507075236 | 30 | 54 | 4.0 | 4.0 | 0.00 | 0.00 | 0.00 | 81 | 1012.9 |
| 20260507074732 | 30 | 102 | 2.0 | 2.0 | 0.00 | 0.00 | 0.00 | 81 | 1012.9 |
| 20260507074231 | 31 | 78 | 2.0 | 2.0 | 0.00 | 0.00 | 0.00 | 78 | 1013.0 |
| 20260507073727 | 31 | 120 | 3.0 | 4.0 | 0.00 | 0.00 | 0.00 | 76 | 1012.8 |
| 20260507073224 | 32 | 129 | 3.0 | 3.0 | 0.00 | 0.00 | 0.00 | 74 | 1013.0 |
| 20260507072722 | 33 | 144 | 2.0 | 3.0 | 0.00 | 0.00 | 0.00 | 73 | 1013.1 |
| 20260507072219 | 32 | 165 | 2.0 | 3.0 | 0.00 | 0.00 | 0.00 | 75 | 1013.2 |
| 20260507071717 | 31 | 140 | 2.0 | 2.0 | 0.00 | 0.00 | 0.00 | 76 | 1013.1 |
| 20260507071213 | 31 | 128 | 2.0 | 2.0 | 0.00 | 0.00 | 0.00 | 77 | 1013.1 |
| 20260507070710 | 31 | 148 | 2.0 | 3.0 | 0.00 | 0.00 | 0.00 | 78 | 1013.3 |
| 20260507070207 | 31 | 152 | 3.0 | 4.0 | 0.00 | 0.00 | 0.00 | 77 | 1013.1 |
| 20260507065703 | 31 | 167 | 2.0 | 3.0 | 0.00 | 0.00 | 0.00 | 78 | 1013.2 |
| 20260507065200 | 30 | 160 | 3.0 | 3.0 | 0.00 | 0.00 | 0.00 | 79 | 1013.4 |
| 20260507064657 | 30 | 120 | 2.0 | 3.0 | 0.00 | 0.00 | 0.00 | 79 | 1013.3 |
| 20260507064156 | 31 | 143 | 2.0 | 3.0 | 0.00 | 0.00 | 0.00 | 78 | 1013.4 |
| 20260507063653 | 31 | 153 | 2.0 | 3.0 | 0.00 | 0.00 | 0.00 | 77 | 1013.3 |
| 20260507063150 | 31 | 139 | 2.0 | 2.0 | 0.00 | 0.00 | 0.00 | 77 | 1013.5 |
| 20260507062646 | 31 | 133 | 2.0 | 3.0 | 0.00 | 0.00 | 0.00 | 78 | 1013.6 |
| 20260507062144 | 31 | 154 | 2.0 | 3.0 | 0.00 | 0.00 | 0.00 | 78 | 1013.6 |
| 20260507061642 | 30 | 157 | 2.0 | 3.0 | 0.00 | 0.00 | 0.00 | 78 | 1013.5 |
| 20260507061140 | 31 | 157 | 2.0 | 3.0 | 0.00 | 0.00 | 0.00 | 77 | 1013.6 |
| 20260507060637 | 31 | 163 | 3.0 | 3.0 | 0.00 | 0.00 | 0.00 | 76 | 1013.6 |
| 20260507060133 | 32 | 154 | 2.0 | 3.0 | 0.00 | 0.00 | 0.00 | 74 | 1013.7 |
| 20260507055629 | 32 | 133 | 2.0 | 2.0 | 0.00 | 0.00 | 0.00 | 74 | 1013.7 |
| 20260507055125 | 32 | 152 | 2.0 | 3.0 | 0.00 | 0.00 | 0.00 | 75 | 1013.9 |
| 20260507054621 | 31 | 124 | 2.0 | 2.0 | 0.00 | 0.00 | 0.00 | 76 | 1013.8 |
| 20260507054119 | 31 | 138 | 2.0 | 3.0 | 0.00 | 0.00 | 0.00 | 77 | 1013.7 |
| 20260507053617 | 32 | 124 | 2.0 | 2.0 | 0.00 | 0.00 | 0.00 | 75 | 1013.7 |
| 20260507053115 | 32 | 120 | 2.0 | 2.0 | 0.00 | 0.00 | 0.00 | 73 | 1013.7 |
| 20260507052613 | 33 | 129 | 2.0 | 3.0 | 0.00 | 0.00 | 0.00 | 73 | 1013.7 |
| 20260507052109 | 33 | 146 | 2.0 | 3.0 | 0.00 | 0.00 | 0.00 | 72 | 1013.8 |
| 20260507051606 | 34 | 132 | 2.0 | 3.0 | 0.00 | 0.00 | 0.00 | 71 | 1013.9 |
| 20260507051103 | 34 | 139 | 2.0 | 2.0 | 0.00 | 0.00 | 0.00 | 70 | 1013.8 |
| 20260507050600 | 33 | 134 | 2.0 | 3.0 | 0.00 | 0.00 | 0.00 | 70 | 1013.7 |
| 20260507050056 | 34 | 150 | 2.0 | 2.0 | 0.00 | 0.00 | 0.00 | 69 | 1013.8 |
| 20260507045553 | 34 | 147 | 2.0 | 3.0 | 0.00 | 0.00 | 0.00 | 68 | 1013.8 |
| 20260507045050 | 35 | 129 | 2.0 | 2.0 | 0.00 | 0.00 | 0.00 | 66 | 1014.0 |
| 20260507044547 | 35 | 142 | 1.0 | 2.0 | 0.00 | 0.00 | 0.00 | 65 | 1013.9 |
| 20260507044044 | 35 | 149 | 0.0 | 1.0 | 0.00 | 0.00 | 0.00 | 64 | 1013.8 |
| 20260507043539 | 36 | 147 | 0.0 | 2.0 | 0.00 | 0.00 | 0.00 | 64 | 1013.9 |
| 20260507043037 | 36 | 144 | 1.0 | 2.0 | 0.00 | 0.00 | 0.00 | 63 | 1014.0 |
| 20260507042533 | 36 | 187 | 0.0 | 1.0 | 0.00 | 0.00 | 0.00 | 64 | 1013.9 |
| 20260507042028 | 35 | 169 | 1.0 | 2.0 | 0.00 | 0.00 | 0.00 | 65 | 1013.9 |
| 20260507041526 | 35 | 143 | 1.0 | 2.0 | 0.00 | 0.00 | 0.00 | 65 | 1014.0 |
| 20260507041022 | 35 | 151 | 2.0 | 2.0 | 0.00 | 0.00 | 0.00 | 65 | 1014.1 |
| 20260507040519 | 35 | 154 | 0.0 | 2.0 | 0.00 | 0.00 | 0.00 | 65 | 1014.0 |
| 20260507040015 | 36 | 178 | 2.0 | 3.0 | 0.00 | 0.00 | 0.00 | 64 | 1013.9 |
| 20260507035511 | 36 | 169 | 2.0 | 3.0 | 0.00 | 0.00 | 0.00 | 64 | 1013.9 |
| 20260507035008 | 36 | 170 | 1.0 | 2.0 | 0.00 | 0.00 | 0.00 | 63 | 1014.0 |
| 20260507034505 | 36 | 173 | 2.0 | 2.0 | 0.00 | 0.00 | 0.00 | 63 | 1014.0 |
| 20260507034003 | 36 | 179 | 2.0 | 2.0 | 0.00 | 0.00 | 0.00 | 63 | 1014.0 |
| 20260507033500 | 36 | 178 | 2.0 | 2.0 | 0.00 | 0.00 | 0.00 | 63 | 1014.2 |
| 20260507032957 | 36 | 167 | 2.0 | 2.0 | 0.00 | 0.00 | 0.00 | 62 | 1014.1 |
| 20260507032454 | 36 | 170 | 2.0 | 2.0 | 0.00 | 0.00 | 0.00 | 62 | 1014.1 |
| 20260507031950 | 36 | 204 | 3.0 | 3.0 | 0.00 | 0.00 | 0.00 | 61 | 1014.1 |
| 20260507031447 | 36 | 186 | 2.0 | 2.0 | 0.00 | 0.00 | 0.00 | 61 | 1014.1 |
| 20260507030944 | 36 | 176 | 2.0 | 3.0 | 0.00 | 0.00 | 0.00 | 61 | 1014.3 |
| 20260507030441 | 36 | 172 | 2.0 | 2.0 | 0.00 | 0.00 | 0.00 | 60 | 1014.1 |
| 20260507025938 | 36 | 190 | 2.0 | 2.0 | 0.00 | 0.00 | 0.00 | 61 | 1013.9 |
| 20260507025435 | 36 | 162 | 1.0 | 2.0 | 0.00 | 0.00 | 0.00 | 61 | 1014.1 |
| 20260507024933 | 36 | 149 | 2.0 | 2.0 | 0.00 | 0.00 | 0.00 | 61 | 1014.0 |
| 20260507024430 | 36 | 19 | 0.0 | 3.0 | 0.00 | 0.00 | 0.00 | 60 | 1014.1 |
| 20260507023926 | 36 | 228 | 2.0 | 4.0 | 0.00 | 0.00 | 0.00 | 60 | 1014.2 |
| 20260507023423 | 36 | 238 | 3.0 | 3.0 | 0.00 | 0.00 | 0.00 | 60 | 1014.3 |
| 20260507022920 | 36 | 231 | 2.0 | 2.0 | 0.00 | 0.00 | 0.00 | 60 | 1014.1 |
| 20260507022417 | 36 | 62 | 0.0 | 2.0 | 0.00 | 0.00 | 0.00 | 60 | 1014.0 |
| 20260507021912 | 36 | 251 | 0.0 | 2.0 | 0.00 | 0.00 | 0.00 | 60 | 1014.1 |
| 20260507021408 | 37 | 266 | 3.0 | 3.0 | 0.00 | 0.00 | 0.00 | 59 | 1014.1 |
| 20260507020906 | 37 | 189 | 2.0 | 4.0 | 0.00 | 0.00 | 0.00 | 60 | 1014.0 |
| 20260507020402 | 37 | 150 | 2.0 | 2.0 | 0.00 | 0.00 | 0.00 | 60 | 1014.0 |
| 20260507015859 | 37 | 258 | 0.0 | 3.0 | 0.00 | 0.00 | 0.00 | 59 | 1014.0 |
| 20260507015357 | 37 | 202 | 1.0 | 4.0 | 0.00 | 0.00 | 0.00 | 59 | 1014.0 |
| 20260507014854 | 37 | 274 | 1.0 | 2.0 | 0.00 | 0.00 | 0.00 | 59 | 1014.0 |
| 20260507014350 | 37 | 193 | 2.0 | 2.0 | 0.00 | 0.00 | 0.00 | 58 | 1013.8 |
| 20260507013847 | 37 | 167 | 2.0 | 3.0 | 0.00 | 0.00 | 0.00 | 59 | 1013.6 |
| 20260507013344 | 37 | 163 | 2.0 | 3.0 | 0.00 | 0.00 | 0.00 | 58 | 1013.8 |
| 20260507012841 | 37 | 186 | 2.0 | 3.0 | 0.00 | 0.00 | 0.00 | 58 | 1013.6 |
| 20260507012337 | 37 | 189 | 2.0 | 3.0 | 0.00 | 0.00 | 0.00 | 58 | 1013.7 |
| 20260507011835 | 37 | 173 | 2.0 | 2.0 | 0.00 | 0.00 | 0.00 | 58 | 1013.7 |
| 20260507011332 | 37 | 241 | 0.0 | 2.0 | 0.00 | 0.00 | 0.00 | 58 | 1013.7 |
| 20260507010831 | 37 | 316 | 0.0 | 2.0 | 0.00 | 0.00 | 0.00 | 57 | 1013.7 |
| 20260507010327 | 37 | 200 | 0.0 | 2.0 | 0.00 | 0.00 | 0.00 | 57 | 1013.7 |
| 20260507005825 | 37 | 261 | 0.0 | 4.0 | 0.00 | 0.00 | 0.00 | 57 | 1013.7 |
| 20260507005321 | 37 | 287 | 2.0 | 5.0 | 0.00 | 0.00 | 0.00 | 57 | 1013.7 |
| 20260507004818 | 37 | 234 | 2.0 | 2.0 | 0.00 | 0.00 | 0.00 | 57 | 1013.5 |
| 20260507004315 | 37 | 303 | 4.0 | 4.0 | 0.00 | 0.00 | 0.00 | 56 | 1013.6 |
| 20260507003812 | 37 | 296 | 2.0 | 8.0 | 0.00 | 0.00 | 0.00 | 56 | 1013.6 |
| 20260507003307 | 38 | 11 | 4.0 | 8.0 | 0.00 | 0.00 | 0.00 | 56 | 1013.6 |
| 20260507002803 | 38 | 278 | 5.0 | 6.0 | 0.00 | 0.00 | 0.00 | 56 | 1013.6 |
| 20260507002259 | 38 | 49 | 0.0 | 4.0 | 0.00 | 0.00 | 0.00 | 56 | 1013.7 |
| 20260507001756 | 38 | 267 | 2.0 | 6.0 | 0.00 | 0.00 | 0.00 | 55 | 1013.6 |
| 20260507001254 | 38 | 297 | 4.0 | 11.0 | 0.00 | 0.00 | 0.00 | 55 | 1013.5 |
| 20260507000750 | 38 | 274 | 5.0 | 7.0 | 0.00 | 0.00 | 0.00 | 55 | 1013.4 |
| 20260507000246 | 38 | 204 | 2.0 | 7.0 | 0.00 | 0.00 | 0.00 | 55 | 1013.5 |
| 20260506235743 | 38 | 5 | 4.0 | 8.0 | 0.00 | 0.00 | 0.00 | 55 | 1013.4 |
| 20260506235238 | 38 | 314 | 5.0 | 11.0 | 0.00 | 0.00 | 0.00 | 54 | 1013.4 |
| 20260506234735 | 39 | 1 | 3.0 | 6.0 | 0.00 | 0.00 | 0.00 | 54 | 1013.4 |
| 20260506234232 | 39 | 343 | 1.0 | 6.0 | 0.00 | 0.00 | 0.00 | 55 | 1013.3 |
| 20260506233730 | 39 | 281 | 6.0 | 12.0 | 0.00 | 0.00 | 0.00 | 54 | 1013.3 |
| 20260506233227 | 39 | 307 | 4.0 | 8.0 | 0.00 | 0.00 | 0.00 | 54 | 1013.1 |
| 20260506232724 | 39 | 315 | 5.0 | 9.0 | 0.00 | 0.00 | 0.00 | 53 | 1013.2 |